Location: La Bastide
(43.1661°N, 1.2755°E)
Time: 10:00:10
(UTC+00:00)

ISS - Pass Details

Date: 15 February 2026
Orbit: 416 x 426 km, 51.6° (Epoch: 10 March)

Event Time Altitude Azimuth Distance (km) Brightness Sun altitude
Exits shadow 04:34:55 23° 123° (ESE) 937 -1.5 -25.7°
Drops below altitude 10° 04:37:14 10° 80° (E) 1,492 0.1 -25.3°
Sets 04:39:34 0° 66° (ENE) 2,357 1.2 -24.9°
